Regional Weather Roundup
Issued by NWS

Home | Current Version | Previous Version | Text Only | Print | Product List | Glossary Off
Versions: 1 2 3 4 5 6 7 8 9 10 11 12 13 14 15 16 17 18 19 20 21 22 23 24 25 26 27 28 29 30 31 32 33 34 35 36 37 38 39 40 41 42 43 44 45 46 47 48 49 50

000
ASUS45 KBOI 280010
RWRID

IDAHO REGIONAL WEATHER ROUNDUP
NATIONAL WEATHER SERVICE BOISE ID
600 PM MDT SAT MAY 27 2017

NOTE: "FAIR" INDICATES FEW OR NO CLOUDS BELOW 12000 FEET
WITH NO SIGNIFICANT WEATHER AND/OR OBSTRUCTIONS TO VISIBILITY

IDZ012-014-280100-
SOUTHWEST IDAHO


CITY           SKY/WX    TMP DP  RH WIND       PRES   REMARKS
BOISE          SUNNY     77  34  21 VRB5      30.14F
CALDWELL       SUNNY     77  32  19 S3        30.14F
MOUNTAIN HOME  SUNNY     77  35  21 E5        30.14F
$$

IDZ016-017-280100-
SOUTHCENTRAL IDAHO


CITY           SKY/WX    TMP DP  RH WIND       PRES   REMARKS
BURLEY         SUNNY     69  34  27 CALM      30.20F
JEROME         SUNNY     70  33  25 VRB3      30.21S
TWIN FALLS     SUNNY     70  35  27 CALM      30.21S
$$

IDZ019>023-280100-
SOUTHEAST IDAHO


CITY           SKY/WX    TMP DP  RH WIND       PRES   REMARKS
IDAHO FALLS    MOSUNNY   67  40  37 VRB6      30.24S
POCATELLO      MOSUNNY   68  33  27 NW8       30.24S
REXBURG        MOSUNNY   63  38  39 S3        30.23F
$$

IDZ006-010-011-018-031-032-280100-
CENTRAL IDAHO MOUNTAINS


CITY           SKY/WX    TMP DP  RH WIND       PRES   REMARKS
MCCALL         SUNNY     68  29  23 MISG      30.21S
HAILEY         MOSUNNY   64  45  48 SE6       30.25F
STANLEY          N/A     65  26  23 CALM      30.28S
SALMON         MOSUNNY   72  34  25 CALM      30.16S
CHALLIS        SUNNY     69  29  22 CALM      30.19S
$$

IDZ002-004-006-007-026-280100-
NORTHERN IDAHO


CITY           SKY/WX    TMP DP  RH WIND       PRES   REMARKS
LEWISTON       SUNNY     82  41  23 CALM      30.09F
LOWELL           N/A     78  45  30 NW5       30.08F
COEUR D`ALENE  SUNNY     77  41  27 VRB3      30.13F
MULLAN PASS    SUNNY     61  33  35 VRB3      30.28S
$$



USA.gov is the U.S. government's official web portal to all federal, state and local government web resources and services.